Temperature
17 17 17 17 16 16 17 16 16 16 16 16 17 17 17 17 17 17 17 17 17 17 17 17 17 17 17 17 17 17 17 17 17 17 17 17 17 18 18 18 18 18 18
17 17 17 16 16 16 16 16 16 16 16 16 16 16 16 16 17 17 16 16 16 16 16 17 17 17 17 17 17 17 17 17 17 17 17 17 17 17 17 18 18 18 18
17 16 16 16 16 16 16 16 16 16 16 16 16 16 16 16 16 16 16 16 16 16 16 16 16 16 16 16 17 17 17 17 17 17 17 17 17 17 17 18 18 18 18
17 16 16 16 16 16 16 16 16 16 16 16 16 16 16 16 16 16 16 16 16 16 16 16 16 16 16 16 16 16 17 17 17 17 17 17 17 17 17 18 18 18 18
16 16 16 16 16 16 16 16 16 16 16 16 16 16 16 16 16 16 16 16 16 16 16 16 16 16 16 16 16 16 16 17 17 17 17 17 17 17 17 17 17 17 18
16 16 16 16 16 16 16 15 15 16 16 16 16 16 16 16 16 16 16 16 16 16 16 16 16 16 16 16 16 16 16 16 17 17 17 17 17 17 17 17 17 17 17
16 16 16 16 15 15 15 15 15 15 16 16 16 16 16 16 16 16 16 16 16 16 16 16 16 16 16 16 16 16 16 16 16 17 17 17 17 17 17 17 17 17 17
16 16 16 15 15 15 15 15 15 15 15 16 16 16 16 16 16 16 16 16 16 16 16 16 16 16 16 16 16 16 16 16 16 16 17 17 17 17 17 17 17 17 17
16 15 16 15 15 15 15 15 15 15 15 15 15 16 16 16 16 16 16 16 16 16 16 16 16 16 16 16 16 16 16 16 16 16 16 17 17 17 17 17 17 17 17
16 16 16 15 15 15 15 15 15 15 15 15 15 15 15 16 16 16 16 16 16 16 16 16 15 15 15 15 15 15 16 16 16 16 16 16 17 17 17 17 17 17 17
16 16 16 15 15 15 15 15 15 15 15 15 15 15 15 15 16 15 15 15 16 16 15 15 15 15 15 15 15 15 15 16 16 16 16 16 16 16 17 17 17 17 17
16 16 16 15 15 15 15 15 15 15 15 15 15 15 15 15 15 15 15 15 15 15 15 15 15 15 15 15 15 15 15 15 16 16 16 16 16 16 16 16 16 16 17
16 16 15 15 15 15 15 15 15 15 15 15 15 15 15 15 15 15 15 15 15 15 15 15 15 15 15 15 15 15 15 15 15 16 16 16 16 16 16 16 16 16 16
16 16 15 15 15 15 15 15 15 15 15 15 15 15 15 15 15 15 15 15 15 15 15 15 15 15 15 15 15 15 15 15 15 15 15 16 16 16 16 16 16 16 16
16 15 15 15 15 15 15 15 15 15 15 15 15 14 14 14 15 15 15 15 14 14 14 14 14 14 14 14 14 15 15 15 15 15 15 15 15 16 16 16 16 16 16
16 15 15 15 15 15 15 15 14 14 14 14 14 14 14 14 14 14 14 14 14 14 14 14 14 14 14 14 14 14 14 14 15 15 15 15 15 15 15 15 15 15 16
16 16 15 15 15 15 14 14 14 14 14 14 14 14 14 14 14 14 14 14 14 14 14 14 14 14 14 14 14 14 14 14 14 14 15 15 15 15 15 15 15 15 15
15 15 15 15 15 15 14 14 14 14 14 14 14 14 14 14 14 14 14 14 14 14 13 13 13 13 13 14 14 14 14 14 14 14 14 15 15 15 15 15 15 15 15
15 15 15 15 15 14 14 14 14 14 14 14 14 14 14 14 13 13 13 13 13 13 13 13 13 13 13 13 13 14 14 14 14 14 14 14 14 14 15 15 15 15 15
15 15 15 15 14 14 14 14 14 14 14 14 13 13 13 13 13 13 13 13 13 13 13 12 12 12 13 13 13 13 13 13 13 13 13 14 14 14 14 14 14 14 14
15 15 14 14 14 14 14 14 13 13 13 13 13 13 13 13 13 13 13 12 12 12 12 12 12 12 12 12 12 12 13 13 13 13 13 13 13 13 13 13 13 13 14
15 14 14 14 14 14 14 13 13 13 13 13 13 13 12 13 13 12 12 12 12 12 12 12 11 11 11 12 12 12 12 12 12 12 12 13 13 13 13 13 13 13 13
14 14 14 14 14 14 13 13 13 13 13 12 12 12 12 12 12 12 12 12 11 11 11 11 11 11 11 11 11 11 11 11 11 12 12 12 12 12 12 12 12 13 13
14 14 13 13 13 13 13 13 13 12 12 12 12 12 12 12 12 11 11 11 11 11 11 11 11 11 11 11 11 11 10 11 11 11 11 11 11 11 11 12 12 12 12
14 13 13 13 13 13 13 13 12 12 12 12 11 11 11 11 11 11 11 11 11 11 10 10 10 10 10 10 10 10 10 10 10 10 10 10 10 10 11 11 11 11 11
13 13 13 13 13 12 12 12 12 12 11 11 11 11 11 11 11 11 10 10 10 10 10 10 10 10 10 10 10 9 9 9 9 9 10 9 9 9 9 10 10 10 10
Wind_Speed
2 2 2 3 4 3 2 2 3 3 4 4 5 5 4 4 4 7 7 8 7 6 5 4 4 4 3 3 2 2 3 3 2 1 1 1 2 2 4 5 6 7 7
2 2 3 3 3 3 3 3 2 2 2 2 2 3 3 4 3 6 7 7 6 6 5 5 4 3 3 2 3 2 2 2 1 1 0 1 2 3 4 6 7 8 8
5 4 3 3 3 5 6 5 4 3 2 2 1 1 2 2 2 3 5 6 6 6 5 5 4 3 3 3 3 2 1 1 1 1 1 2 3 4 6 7 7 9 9
8 5 3 3 5 6 4 3 4 3 3 3 2 2 1 1 2 1 2 4 5 6 6 5 4 4 3 3 2 2 1 1 1 1 2 3 4 6 7 8 8 8 9
8 5 3 3 6 4 3 4 4 3 3 3 1 1 1 1 2 2 2 3 4 5 6 6 5 4 3 3 2 1 1 1 1 2 2 3 4 4 6 7 8 8 9
9 6 3 5 5 4 4 4 4 3 2 3 3 2 1 1 2 2 2 3 3 4 4 5 5 3 2 2 2 1 1 1 1 2 3 3 3 3 5 6 7 9 10
8 6 3 4 4 4 4 5 4 4 3 3 3 2 2 2 2 2 2 2 3 4 3 3 3 3 3 2 2 2 2 2 2 2 3 3 2 3 4 5 6 7 9
7 6 4 3 3 3 5 4 4 3 3 3 2 2 2 3 4 2 2 2 2 2 2 3 3 4 3 3 2 3 3 3 3 3 3 2 0 2 3 4 5 6 7
6 6 6 4 3 3 3 3 4 4 3 3 4 2 2 1 2 3 3 2 2 2 2 3 4 5 5 5 4 5 5 5 4 3 3 3 1 1 2 3 4 6 7
5 5 5 4 3 3 4 4 5 4 4 3 3 3 2 1 1 2 3 3 3 3 3 3 5 6 7 6 6 7 7 7 6 5 4 4 2 2 1 2 4 5 6
3 4 4 3 3 2 3 3 4 4 3 3 3 3 3 3 2 2 2 3 3 2 2 2 3 4 6 6 6 7 7 7 7 6 6 5 3 2 2 2 3 4 5
2 3 3 3 3 3 3 3 3 3 3 3 3 3 3 3 3 2 1 2 2 2 2 2 3 3 5 5 6 6 6 7 8 7 7 7 5 3 2 1 2 3 4
2 2 2 3 3 3 3 4 3 3 3 3 3 3 3 3 2 2 2 2 2 1 2 2 2 4 5 5 5 5 4 5 6 6 7 7 7 5 3 1 1 2 3
2 2 3 4 4 4 4 4 4 4 4 4 5 4 3 3 3 3 2 2 2 2 3 2 2 3 5 5 5 4 3 3 4 4 5 6 6 6 4 3 2 1 2
2 3 3 4 4 4 5 4 4 4 4 5 4 5 4 3 3 3 2 2 1 2 2 3 3 3 5 5 5 4 3 2 2 2 3 4 5 5 4 4 3 2 3
3 3 4 4 4 4 4 4 4 4 5 3 3 4 4 4 4 4 3 3 2 1 1 2 2 3 4 6 7 6 5 3 1 1 2 2 3 3 3 3 3 2 1
3 4 4 4 4 4 4 4 4 5 5 5 5 5 5 5 4 4 4 3 3 2 1 2 3 3 4 4 5 7 5 3 1 1 1 1 2 2 2 2 2 1 0
3 4 4 5 5 5 4 4 4 5 5 5 5 5 5 5 5 5 4 4 4 3 2 3 3 3 4 4 4 5 6 6 3 1 2 2 2 3 3 3 3 2 2
4 4 5 5 5 5 5 4 4 4 5 5 5 6 6 6 6 5 5 5 4 4 3 2 3 3 3 3 4 5 5 5 6 2 2 3 4 4 4 4 4 4 4
4 5 5 5 5 5 5 5 4 4 5 4 5 6 6 6 6 6 5 5 5 5 4 3 3 3 3 4 4 4 5 5 5 4 4 4 4 5 5 4 5 5 6
5 5 6 6 5 5 6 7 5 5 4 4 4 5 5 7 7 6 5 5 5 4 4 3 3 3 3 4 4 3 4 4 4 3 3 4 4 4 5 6 7 7 7
4 5 5 6 6 5 8 10 8 4 4 4 4 3 4 5 5 6 6 6 5 4 4 3 3 3 4 4 4 4 4 4 4 4 3 4 3 3 5 6 7 8 9
4 5 5 5 5 5 7 8 9 5 3 3 4 4 4 6 6 4 5 6 5 5 3 2 3 4 4 4 4 5 5 5 5 5 4 4 4 4 5 7 8 9 10
4 4 4 4 4 4 5 6 8 4 3 3 4 4 4 4 7 7 5 5 5 3 3 3 3 4 4 4 3 4 5 6 5 4 3 4 4 4 5 7 9 10 11
4 3 3 4 4 3 3 4 5 3 2 3 3 3 4 4 7 9 6 6 6 5 6 7 7 8 9 9 7 3 4 4 5 5 3 3 4 5 5 4 8 11 12
4 3 3 3 4 3 3 2 3 2 2 2 2 2 5 4 5 7 4 4 5 6 7 7 7 8 7 7 7 2 2 3 4 4 4 3 4 4 5 4 3 7 10
Wind_Direction
30 13 54 27 23 21 25 6 15 24 11 20 20 24 23 38 76 105 118 120 113 105 95 87 89 92 86 75 82 84 82 79 76 79 143 206 222 213 208 202 200 191 187
37 21 47 38 12 10 16 22 26 25 24 25 20 28 15 18 49 102 127 132 128 120 110 103 100 93 86 75 79 84 83 80 61 34 328 243 234 231 223 214 210 200 195
37 38 36 30 9 14 26 24 20 16 21 39 39 50 39 20 41 88 128 145 144 137 130 119 111 110 96 91 82 73 61 45 35 356 290 272 250 245 229 216 212 203 198
46 42 28 12 20 25 24 31 25 12 17 19 19 16 57 32 37 58 96 134 147 145 148 141 131 125 113 98 89 71 45 3 351 323 290 273 253 242 228 216 208 201 198
44 50 25 11 33 28 15 25 37 23 8 356 351 36 36 41 22 36 52 72 94 122 142 152 147 132 117 102 89 66 6 354 313 315 307 289 261 240 220 215 209 203 198
39 37 32 27 35 30 19 26 26 24 2 347 4 39 12 74 65 18 23 58 67 86 109 135 147 143 135 113 78 39 351 325 306 316 319 307 262 233 205 209 213 209 201
33 33 29 36 41 40 31 31 20 9 0 7 17 4 14 45 63 57 36 47 51 54 66 96 121 129 125 108 68 24 6 341 321 326 335 332 265 215 198 203 211 211 204
31 28 31 39 51 48 35 29 29 11 1 22 27 13 17 18 6 39 51 68 62 37 44 74 75 79 85 104 81 37 23 7 350 337 339 346 316 177 188 203 213 206 199
41 30 29 35 39 51 39 33 38 32 3 4 29 45 60 25 342 357 16 52 58 41 33 46 61 62 60 73 73 56 44 26 5 350 343 348 15 126 163 180 183 187 181
50 34 31 31 36 51 44 27 38 24 26 12 6 19 46 89 78 356 352 15 46 54 43 44 49 51 52 62 70 57 46 26 15 15 10 1 14 56 119 154 165 167 171
64 51 31 32 34 52 63 52 45 37 28 28 15 9 11 13 25 67 353 351 13 36 50 58 61 55 51 57 65 56 49 33 32 31 23 16 27 46 83 117 137 155 170
71 62 47 43 35 33 41 44 53 57 38 26 22 28 33 30 18 35 25 0 3 359 35 58 61 58 57 57 51 55 49 37 36 34 29 20 16 27 59 120 142 146 154
80 61 53 57 45 31 38 30 36 40 49 43 39 29 26 25 25 37 38 354 347 330 35 36 53 59 46 51 50 44 44 39 37 34 30 26 24 29 41 68 144 156 150
101 84 72 66 51 33 41 32 22 27 37 37 34 30 23 21 27 41 44 29 6 359 23 20 22 48 42 41 42 38 39 41 46 42 33 27 26 27 35 53 63 89 100
89 84 82 79 62 42 41 34 34 24 34 40 26 23 18 16 22 25 29 49 61 18 353 0 7 7 32 36 33 14 26 76 76 64 48 31 23 25 28 26 29 64 73
70 76 72 75 64 54 47 37 35 26 35 38 31 33 28 18 15 14 18 14 31 78 346 336 347 356 20 20 19 11 4 28 54 96 73 33 16 21 25 18 20 36 73
94 90 74 74 68 59 55 49 39 37 34 29 28 40 33 28 19 12 12 13 18 39 30 329 340 355 13 7 3 358 358 6 29 111 83 19 360 341 336 331 332 345 331
74 88 85 76 66 57 52 49 44 43 42 34 28 37 33 29 20 11 17 18 13 13 29 345 339 355 2 357 359 351 359 7 8 52 35 2 335 316 300 288 280 269 263
85 78 80 77 67 58 48 42 46 47 47 43 41 43 37 31 20 15 16 15 6 6 13 9 343 348 353 358 3 355 355 355 354 11 358 337 325 314 298 285 274 269 266
83 76 74 72 67 61 45 31 29 45 46 46 57 60 51 43 32 14 14 9 6 6 1 4 350 343 347 356 17 358 347 340 337 349 356 334 320 314 303 289 279 270 269
79 82 77 71 60 58 41 31 18 30 40 44 56 71 71 62 46 32 22 7 5 6 1 359 350 351 354 5 359 343 341 327 323 336 345 330 323 306 297 285 278 272 270
77 83 86 81 66 55 45 36 20 15 21 37 40 55 81 62 42 29 13 6 10 16 3 356 347 351 343 344 344 339 335 341 323 320 337 315 318 301 291 275 277 274 269
90 87 89 90 84 63 47 29 12 5 16 24 33 35 32 41 34 8 354 347 344 337 338 339 344 338 332 336 343 333 326 320 297 293 318 305 311 309 303 296 290 284 274
113 110 107 107 100 73 48 25 2 359 14 20 37 37 46 41 19 11 359 355 344 334 314 329 325 310 310 307 306 301 297 303 300 308 324 303 305 301 306 302 284 282 279
124 126 127 121 115 99 58 28 7 356 8 12 38 45 48 54 23 15 9 349 338 336 337 333 321 309 308 314 314 324 324 328 316 308 321 317 313 313 302 292 293 288 287
140 145 141 138 137 135 123 58 25 354 351 351 16 41 39 36 19 10 1 341 331 324 330 326 316 310 308 307 311 295 301 312 310 306 316 328 313 322 309 295 304 307 297
Height
1547 1547 1547 1546 1546 1546 1545 1545 1545 1544 1544 1544 1544 1545 1545 1545 1546 1545 1545 1545 1545 1545 1545 1545 1545 1546 1546 1547 1547 1548 1548 1549 1549 1550 1550 1551 1552 1553 1554 1556 1557 1559 1560
1548 1547 1547 1547 1546 1546 1546 1546 1546 1545 1545 1545 1545 1545 1545 1546 1546 1545 1545 1545 1545 1545 1545 1546 1546 1546 1546 1546 1547 1547 1548 1548 1548 1549 1549 1549 1550 1551 1552 1554 1555 1557 1559
1548 1548 1548 1547 1547 1547 1546 1546 1546 1546 1545 1545 1545 1546 1546 1546 1546 1546 1546 1546 1546 1546 1546 1546 1546 1546 1546 1546 1546 1547 1547 1547 1547 1547 1547 1547 1548 1549 1550 1552 1553 1555 1556
1549 1548 1548 1548 1548 1547 1547 1546 1546 1546 1546 1546 1546 1546 1546 1546 1546 1546 1547 1546 1546 1546 1546 1546 1546 1546 1546 1546 1546 1546 1546 1546 1546 1546 1545 1545 1545 1546 1547 1549 1551 1552 1553
1550 1549 1549 1548 1548 1547 1547 1547 1546 1546 1546 1546 1546 1546 1547 1547 1547 1547 1547 1547 1547 1547 1547 1546 1546 1546 1546 1546 1546 1546 1545 1545 1545 1544 1543 1541 1540 1541 1543 1545 1548 1550 1551
1550 1550 1550 1549 1548 1548 1548 1547 1547 1547 1547 1546 1547 1547 1547 1547 1548 1547 1548 1548 1548 1548 1547 1547 1547 1546 1546 1546 1546 1545 1545 1544 1544 1542 1540 1537 1536 1536 1539 1542 1545 1547 1550
1551 1551 1550 1550 1549 1548 1548 1548 1548 1548 1547 1547 1547 1547 1547 1548 1548 1548 1548 1548 1548 1548 1548 1548 1547 1547 1547 1546 1545 1544 1544 1543 1542 1541 1538 1535 1533 1534 1537 1540 1542 1544 1546
1552 1552 1551 1551 1550 1550 1549 1549 1549 1548 1548 1548 1548 1548 1548 1550 1549 1549 1549 1549 1549 1549 1548 1548 1548 1547 1547 1546 1545 1544 1543 1542 1541 1540 1538 1535 1533 1534 1536 1538 1539 1541 1542
1553 1552 1552 1552 1551 1551 1550 1550 1550 1549 1549 1549 1549 1549 1549 1550 1550 1551 1550 1550 1550 1549 1549 1549 1548 1548 1547 1546 1545 1544 1543 1541 1540 1538 1537 1536 1535 1535 1536 1537 1537 1538 1539
1554 1553 1553 1552 1552 1552 1551 1551 1551 1550 1550 1550 1550 1550 1551 1551 1551 1551 1552 1551 1551 1550 1550 1549 1549 1548 1547 1546 1545 1544 1542 1540 1537 1536 1537 1536 1536 1536 1537 1537 1538 1539 1540
1554 1554 1554 1553 1553 1553 1553 1552 1552 1551 1551 1551 1551 1551 1551 1552 1552 1552 1551 1552 1551 1551 1551 1550 1549 1548 1547 1546 1545 1544 1542 1540 1536 1536 1537 1538 1537 1538 1538 1539 1539 1540 1540
1555 1555 1555 1554 1554 1554 1554 1553 1553 1553 1552 1552 1552 1552 1552 1552 1552 1552 1552 1552 1551 1552 1551 1551 1550 1549 1548 1547 1546 1545 1543 1541 1540 1539 1539 1539 1539 1539 1540 1540 1541 1541 1541
1556 1556 1556 1555 1555 1555 1555 1554 1554 1554 1554 1553 1553 1553 1553 1553 1553 1553 1553 1552 1552 1552 1552 1551 1551 1550 1549 1547 1546 1545 1544 1543 1542 1541 1541 1541 1540 1540 1541 1541 1542 1543 1543
1557 1557 1557 1556 1556 1556 1556 1555 1555 1555 1555 1554 1554 1554 1554 1554 1554 1554 1553 1553 1552 1552 1552 1552 1551 1550 1549 1548 1547 1546 1544 1543 1543 1542 1542 1541 1541 1541 1541 1542 1542 1543 1544
1558 1557 1557 1557 1557 1556 1556 1556 1556 1555 1555 1555 1555 1554 1554 1554 1554 1554 1554 1554 1554 1552 1552 1552 1552 1551 1550 1548 1547 1546 1544 1544 1543 1542 1542 1542 1541 1541 1541 1541 1542 1542 1543
1558 1558 1558 1557 1557 1557 1557 1556 1556 1556 1556 1556 1555 1555 1554 1554 1554 1554 1554 1553 1553 1553 1552 1552 1551 1551 1549 1548 1547 1546 1545 1544 1543 1542 1542 1541 1541 1541 1541 1541 1541 1542 1542
1557 1558 1558 1558 1558 1557 1557 1557 1557 1557 1556 1556 1555 1555 1555 1554 1554 1554 1554 1553 1553 1553 1552 1552 1551 1550 1549 1548 1546 1545 1544 1543 1543 1542 1541 1541 1540 1540 1540 1540 1540 1541 1541
1557 1558 1558 1558 1558 1558 1558 1558 1557 1557 1557 1556 1556 1556 1555 1554 1554 1554 1553 1553 1553 1552 1552 1550 1550 1549 1548 1547 1546 1545 1544 1543 1542 1541 1541 1540 1539 1539 1539 1539 1539 1539 1539
1557 1558 1558 1558 1558 1558 1558 1558 1558 1558 1557 1557 1556 1556 1555 1554 1554 1553 1553 1552 1552 1551 1551 1550 1549 1549 1548 1547 1545 1544 1543 1542 1541 1540 1540 1539 1538 1538 1537 1537 1537 1537 1537
1557 1557 1558 1558 1558 1558 1558 1558 1558 1558 1557 1557 1556 1556 1555 1555 1554 1553 1553 1552 1551 1551 1550 1549 1548 1548 1547 1546 1544 1543 1541 1541 1540 1539 1538 1538 1537 1536 1536 1535 1535 1534 1534
1556 1557 1557 1557 1558 1558 1558 1558 1558 1558 1557 1557 1557 1556 1556 1555 1554 1553 1553 1552 1551 1550 1549 1548 1547 1546 1545 1544 1543 1542 1540 1539 1538 1537 1536 1535 1535 1534 1534 1533 1533 1532 1532
1555 1556 1556 1557 1557 1557 1557 1557 1558 1557 1557 1557 1556 1556 1555 1554 1554 1553 1552 1552 1551 1550 1549 1548 1547 1545 1544 1543 1542 1540 1539 1537 1536 1536 1534 1533 1533 1532 1531 1531 1530 1529 1529
1554 1555 1556 1556 1556 1557 1557 1557 1557 1557 1557 1556 1556 1556 1555 1554 1553 1552 1552 1551 1550 1549 1549 1548 1546 1544 1543 1542 1540 1538 1537 1536 1535 1534 1532 1530 1530 1529 1528 1527 1527 1526 1525
1553 1554 1554 1555 1555 1556 1556 1556 1556 1556 1556 1556 1555 1555 1554 1553 1552 1551 1550 1549 1548 1548 1547 1546 1545 1543 1542 1540 1539 1538 1536 1534 1533 1532 1530 1528 1526 1525 1524 1523 1523 1522 1521
1552 1553 1554 1554 1554 1555 1555 1555 1555 1555 1555 1555 1554 1554 1553 1552 1551 1550 1549 1547 1546 1546 1545 1544 1543 1541 1540 1538 1537 1535 1533 1531 1529 1528 1528 1526 1523 1521 1520 1519 1518 1517 1516
1550 1551 1552 1553 1553 1554 1554 1554 1554 1554 1554 1553 1553 1552 1552 1551 1550 1548 1547 1545 1544 1543 1542 1540 1539 1538 1537 1536 1534 1533 1531 1529 1527 1525 1525 1523 1521 1518 1515 1514 1514 1513 1511